• In India
  • List of Countries
  • For 7 days
  • Water Temperature
  • Satellite Maps
  • Weather Map
  • Weather Widgets
  • user-avatar
    Login

    Hourly Weather Lowecice

    Today, 26 September, Wednesday

    Time Temperature Precipitation Wind Pressure Humidity
    00:00 +6°C° 0 mm 2 mps 765 mmHg 72%
    01:00 +5°C° 0 mm 2 mps 765 mmHg 71%
    02:00 +5°C° 0 mm 2 mps 765 mmHg 71%
    03:00 +5°C° 0 mm 2 mps 765 mmHg 71%
    04:00 +5°C° 0 mm 2 mps 765 mmHg 72%
    05:00 +5°C° 0 mm 2 mps 765 mmHg 70%
    06:00 +6°C° 0 mm 2 mps 765 mmHg 69%
    07:00 +5°C° 0 mm 3 mps 765 mmHg 68%
    08:00 +8°C° 0 mm 3 mps 764 mmHg 61%
    09:00 +10°C° 0 mm 3 mps 764 mmHg 54%
    10:00 +12°C° 0 mm 4 mps 764 mmHg 47%
    11:00 +13°C° 0 mm 4 mps 763 mmHg 45%
    12:00 +13°C° 0 mm 4 mps 763 mmHg 44%
    13:00 +14°C° 0 mm 4 mps 762 mmHg 42%
    14:00 +14°C° 0 mm 4 mps 762 mmHg 43%
    15:00 +14°C° 0 mm 4 mps 761 mmHg 44%
    16:00 +15°C° 0 mm 4 mps 760 mmHg 45%
    17:00 +14°C° 0 mm 4 mps 760 mmHg 47%
    18:00 +13°C° 0 mm 4 mps 760 mmHg 48%
    19:00 +12°C° 0 mm 4 mps 760 mmHg 50%
    20:00 +12°C° 0 mm 4 mps 760 mmHg 50%
    21:00 +12°C° 0 mm 5 mps 760 mmHg 50%
    22:00 +12°C° 0 mm 5 mps 760 mmHg 49%
    23:00 +12°C° 0 mm 5 mps 759 mmHg 50%

    Tomorrow, 27 September, Thursday

    Time Temperature Precipitation Wind Pressure Humidity
    00:00 +12°C° 0 mm 5 mps 759 mmHg 50%
    01:00 +12°C° 0 mm 5 mps 759 mmHg 50%
    02:00 +12°C° 0 mm 4 mps 759 mmHg 52%
    03:00 +12°C° 0 mm 4 mps 759 mmHg 54%
    04:00 +12°C° 0 mm 4 mps 759 mmHg 55%
    05:00 +12°C° 0 mm 4 mps 759 mmHg 57%
    06:00 +12°C° 0 mm 4 mps 759 mmHg 60%
    07:00 +12°C° 0 mm 4 mps 759 mmHg 62%
    08:00 +14°C° 0 mm 4 mps 759 mmHg 61%
    09:00 +15°C° 0 mm 4 mps 759 mmHg 60%
    10:00 +17°C° 0 mm 5 mps 759 mmHg 60%
    11:00 +19°C° 0 mm 4 mps 758 mmHg 59%
    12:00 +21°C° 0 mm 4 mps 758 mmHg 58%
    13:00 +22°C° 0 mm 4 mps 758 mmHg 58%
    14:00 +22°C° 0 mm 4 mps 757 mmHg 58%
    15:00 +22°C° 0 mm 3 mps 757 mmHg 59%
    16:00 +22°C° 0 mm 3 mps 756 mmHg 60%
    17:00 +20°C° 0 mm 3 mps 756 mmHg 65%
    18:00 +19°C° 0 mm 3 mps 755 mmHg 69%
    19:00 +17°C° 0 mm 3 mps 755 mmHg 74%
    20:00 +17°C° 0 mm 3 mps 755 mmHg 73%
    21:00 +16°C° 0 mm 3 mps 754 mmHg 73%
    22:00 +16°C° 0 mm 3 mps 754 mmHg 72%
    23:00 +16°C° 0 mm 3 mps 754 mmHg 72%

    Day after tomorrow, 28 September, Friday

    Time Temperature Precipitation Wind Pressure Humidity
    00:00 +16°C° 0 mm 3 mps 753 mmHg 71%
    01:00 +15°C° 0 mm 4 mps 753 mmHg 71%
    02:00 +14°C° 0 mm 4 mps 752 mmHg 71%
    03:00 +13°C° 0 mm 3 mps 752 mmHg 71%
    04:00 +13°C° 0 mm 3 mps 751 mmHg 70%
    05:00 +13°C° 0 mm 3 mps 751 mmHg 70%
    06:00 +12°C° 0 mm 3 mps 751 mmHg 69%
    07:00 +12°C° 0 mm 3 mps 752 mmHg 68%
    08:00 +13°C° 0 mm 4 mps 752 mmHg 66%
    09:00 +15°C° 0 mm 4 mps 752 mmHg 64%
    10:00 +17°C° 0 mm 4 mps 752 mmHg 62%
    11:00 +17°C° 0 mm 4 mps 752 mmHg 65%
    12:00 +15°C° 0 mm 4 mps 752 mmHg 68%
    13:00 +15°C° 0 mm 4 mps 752 mmHg 70%
    14:00 +15°C° 0 mm 4 mps 752 mmHg 68%
    15:00 +15°C° 0 mm 4 mps 752 mmHg 65%
    16:00 +15°C° 0 mm 4 mps 752 mmHg 62%
    17:00 +14°C° 0 mm 4 mps 752 mmHg 64%
    18:00 +13°C° 0 mm 3 mps 753 mmHg 65%
    19:00 +12°C° 0 mm 2 mps 753 mmHg 66%
    20:00 +12°C° 0 mm 2 mps 753 mmHg 67%
    21:00 +10°C° 0 mm 2 mps 754 mmHg 68%
    22:00 +10°C° 0 mm 2 mps 754 mmHg 70%
    23:00 +9°C° 0 mm 2 mps 754 mmHg 71%

    29 September, Saturday

    Time Temperature Precipitation Wind Pressure Humidity
    00:00 +9°C° 0 mm 2 mps 755 mmHg 72%
    01:00 +9°C° 0 mm 2 mps 755 mmHg 74%
    02:00 +8°C° 0 mm 2 mps 755 mmHg 77%
    03:00 +8°C° 0 mm 3 mps 755 mmHg 80%
    04:00 +7°C° 0 mm 3 mps 755 mmHg 84%
    05:00 +7°C° 0 mm 3 mps 756 mmHg 82%
    06:00 +7°C° 0 mm 3 mps 756 mmHg 80%
    07:00 +7°C° 0 mm 3 mps 757 mmHg 78%
    08:00 +8°C° 0 mm 3 mps 757 mmHg 71%
    09:00 +10°C° 0 mm 3 mps 757 mmHg 65%
    10:00 +11°C° 0 mm 3 mps 758 mmHg 59%
    11:00 +12°C° 0 mm 3 mps 758 mmHg 55%
    12:00 +13°C° 0 mm 3 mps 758 mmHg 50%
    13:00 +14°C° 0 mm 3 mps 758 mmHg 46%
    14:00 +13°C° 0 mm 3 mps 758 mmHg 46%
    15:00 +14°C° 0 mm 2 mps 758 mmHg 46%
    16:00 +14°C° 0 mm 2 mps 758 mmHg 47%
    17:00 +13°C° 0 mm 2 mps 758 mmHg 51%
    18:00 +11°C° 0 mm 1 mps 758 mmHg 56%
    19:00 +10°C° 0 mm 1 mps 759 mmHg 61%
    20:00 +9°C° 0 mm 1 mps 759 mmHg 62%
    21:00 +9°C° 0 mm 1 mps 759 mmHg 63%
    22:00 +9°C° 0 mm 1 mps 759 mmHg 65%
    23:00 +8°C° 0 mm 1 mps 759 mmHg 66%

    30 September, Sunday

    Time Temperature Precipitation Wind Pressure Humidity
    00:00 +8°C° 0 mm 1 mps 759 mmHg 67%
    01:00 +8°C° 0 mm 1 mps 759 mmHg 68%
    02:00 +7°C° 0 mm 1 mps 758 mmHg 69%
    03:00 +7°C° 0 mm 1 mps 758 mmHg 69%
    04:00 +7°C° 0 mm 1 mps 758 mmHg 70%
    05:00 +7°C° 0 mm 1 mps 758 mmHg 69%
    06:00 +7°C° 0 mm 1 mps 758 mmHg 68%
    07:00 +8°C° 0 mm 1 mps 758 mmHg 67%
    08:00 +9°C° 0 mm 2 mps 758 mmHg 60%
    09:00 +10°C° 0 mm 2 mps 757 mmHg 52%
    10:00 +12°C° 0 mm 3 mps 757 mmHg 45%
    11:00 +13°C° 0 mm 3 mps 757 mmHg 42%
    12:00 +14°C° 0 mm 3 mps 756 mmHg 39%
    13:00 +16°C° 0 mm 3 mps 755 mmHg 36%
    14:00 +14°C° 0 mm 3 mps 755 mmHg 37%
    15:00 +14°C° 0 mm 3 mps 754 mmHg 39%
    16:00 +14°C° 0 mm 3 mps 753 mmHg 40%
    17:00 +13°C° 0 mm 3 mps 753 mmHg 44%
    18:00 +11°C° 0 mm 3 mps 753 mmHg 48%
    19:00 +9°C° 0 mm 3 mps 753 mmHg 52%
    20:00 +9°C° 0 mm 2 mps 752 mmHg 54%
    21:00 +8°C° 0 mm 2 mps 752 mmHg 55%
    22:00 +8°C° 0 mm 2 mps 751 mmHg 57%
    23:00 +7°C° 0 mm 2 mps 751 mmHg 58%

    1 October, Monday

    Time Temperature Precipitation Wind Pressure Humidity
    00:00 +7°C° 0 mm 2 mps 750 mmHg 59%
    01:00 +7°C° 0 mm 2 mps 750 mmHg 60%
    02:00 +7°C° 0 mm 2 mps 749 mmHg 61%
    03:00 +7°C° 0 mm 2 mps 748 mmHg 62%
    04:00 +7°C° 0 mm 2 mps 748 mmHg 63%
    05:00 +7°C° 0 mm 2 mps 747 mmHg 65%
    06:00 +7°C° 0 mm 3 mps 747 mmHg 67%
    07:00 +8°C° 0 mm 3 mps 747 mmHg 68%
    08:00 +10°C° 0 mm 3 mps 746 mmHg 64%
    09:00 +12°C° 0 mm 4 mps 746 mmHg 59%
    10:00 +15°C° 0 mm 4 mps 746 mmHg 55%
    11:00 +17°C° 0 mm 4 mps 745 mmHg 52%
    12:00 +18°C° 0 mm 4 mps 745 mmHg 49%
    13:00 +19°C° 0 mm 4 mps 745 mmHg 46%
    14:00 +19°C° 0 mm 4 mps 745 mmHg 47%
    15:00 +18°C° 0 mm 3 mps 744 mmHg 48%
    16:00 +18°C° 0 mm 3 mps 744 mmHg 49%
    17:00 +16°C° 0 mm 3 mps 744 mmHg 52%
    18:00 +14°C° 0 mm 2 mps 745 mmHg 56%
    19:00 +12°C° 0 mm 2 mps 745 mmHg 60%
    20:00 +12°C° 0 mm 2 mps 745 mmHg 60%
    21:00 +12°C° 0 mm 2 mps 746 mmHg 60%
    22:00 +10°C° 0 mm 2 mps 746 mmHg 61%
    23:00 +10°C° 0 mm 2 mps 747 mmHg 62%
    Show more